This demonstration page uses our WeatherBlox Daily Observations layout. Learn more.

Left ArrowRight Arrow

Hourly Observations for April 23, 2021

Temp ( °F °C ) Dew Point ( °F °C ) Humidity (%) Winds ( mph kmh ) Pressure ( in mb ) Visibility ( mi km ) Precip ( " mm )
12:56 am 00:56 Clear 41 5 34 1.1 76 76 S 16 26 29.85 1011 10 16 0.00 0.00
1:56 am 01:56 Clear 41 5 35 1.7 79 79 S 18 30 29.83 1010 10 16 0.00 0.00
2:56 am 02:56 Mostly Clear 41 5 36 2.2 82 82 S 20 31 29.80 1009 10 16 0.00 0.00
3:56 am 03:56 Mostly Clear 41 5 37 2.8 86 86 SSW 13 20 29.81 1010 10 16 0.00 0.00
4:28 am 04:28 Mostly Cloudy 41 5 37 3 87 87 S 8 13 29.86 1011 10 16 0.00 0.00
4:56 am 04:56 Mostly Cloudy 40 4.4 36 2.2 86 86 SSW 8 13 29.83 1010 10 16 0.00 0.00
5:11 am 05:11 Partly Cloudy 39 4 36 2 87 87 SSW 8 13 29.87 1011 10 16 0.00 0.00
5:56 am 05:56 Clear 37 2.8 35 1.7 93 93 S 9 15 29.81 1010 10 16 0.00 0.00
6:56 am 06:56 Sunny 35 1.7 34 1.1 96 96 S 8 13 29.82 1010 10 16 0.00 0.00
7:56 am 07:56 Sunny 39 3.9 37 2.8 93 93 S 5 7 29.85 1011 10 16 0.00 0.00
8:26 am 08:26 Mostly Cloudy 43 6 39 4 87 87 S 7 11 29.88 1012 10 16 0.00 0.00
8:53 am 08:53 Partly Cloudy 45 7 41 5 87 87 S 9 15 29.87 1012 10 16 0.00 0.00
8:56 am 08:56 Mostly Sunny 45 7.2 41 5 86 86 S 9 15 29.85 1011 10 16 0.00 0.00
9:33 am 09:33 Mostly Cloudy 48 9 43 6 82 82 SW 12 19 29.85 1011 10 16 0.00 0.00
9:56 am 09:56 Mostly Cloudy 50 10 43 6.1 77 77 SSW 13 20 29.85 1011 10 16 0.00 0.00
10:10 am 10:10 Partly Cloudy 50 10 43 6 76 76 WSW 8 13 29.85 1011 10 16 0.00 0.00
10:21 am 10:21 Mostly Cloudy 52 11 43 6 72 72 SW 7 11 29.84 1010 10 16 0.00 0.00
10:29 am 10:29 Partly Cloudy 52 11 43 6 72 72 VRB 5 7 29.84 1010 10 16 0.00 0.00
10:56 am 10:56 Sunny 53 11.7 43 6.1 69 69 WSW 6 9 29.85 1011 10 16 0.00 0.00
11:56 am 11:56 Sunny 56 13.3 42 5.6 60 60 SSE 5 7 29.85 1011 10 16 0.00 0.00
12:56 pm 12:56 Sunny 58 14.4 40 4.4 51 51 VRB 3 6 29.84 1011 10 16 0.00 0.00
1:56 pm 13:56 Sunny 62 16.7 41 5 46 46 E 6 9 29.82 1010 10 16 0.00 0.00
2:56 pm 14:56 Partly Cloudy 64 17.8 40 4.4 41 41 ENE 13 20 29.81 1010 10 16 0.00 0.00
3:56 pm 15:56 Mostly Cloudy 63 17.2 36 2.2 37 37 E 13 20 29.81 1010 10 16 0.00 0.00
4:56 pm 16:56 Sunny 64 17.8 36 2.2 35 35 E 8 13 29.81 1010 10 16 0.00 0.00
5:56 pm 17:56 Sunny 65 18.3 30 -1.1 27 27 NE 7 11 29.82 1010 10 16 0.00 0.00
6:56 pm 18:56 Sunny 63 17.2 32 0 31 31 NNE 12 19 29.83 1010 10 16 0.00 0.00
7:56 pm 19:56 Sunny 58 14.4 33 0.6 39 39 NE 10 17 29.83 1010 10 16 0.00 0.00
8:56 pm 20:56 Clear 53 11.7 36 2.2 52 52 N 22 35 29.87 1012 10 16 0.00 0.00
9:56 pm 21:56 Clear 50 10 37 2.8 61 61 NNE 18 30 29.92 1013 10 16 0.00 0.00
10:56 pm 22:56 Clear 45 7.2 37 2.8 74 74 N 13 20 29.96 1015 10 16 0.00 0.00
11:56 pm 23:56 Clear 41 5 35 1.7 79 79 N 15 24 29.99 1016 10 16 0.00 0.00

Powered by AerisWeather